FW6193 Weather Reports


time (UTC)temp
C
wind
direction
speed
KPH
gust
KPH
rain 1hr
cm
rain 24hr
cm
rain mn
cm
humidity
%
barometer
mb
20260510192528 27 0 0.0 0.0 0.00 0.05 0.00 54 1012.9
20260510192013 26 0 0.0 0.0 0.00 0.05 0.00 55 1012.8
20260510191753 25 0 0.0 0.0 0.00 0.05 0.00 52 1012.9
20260510191011 26 0 0.0 0.0 0.00 0.05 0.00 51 1012.8
20260510190608 26 0 0.0 0.0 0.00 0.05 0.00 55 1012.9
20260510190034 26 0 0.0 0.0 0.00 0.05 0.00 55 1012.9
20260510185803 25 0 0.0 0.0 0.00 0.08 0.00 56 1012.9
20260510184540 25 0 0.0 0.0 0.00 0.08 0.00 53 1013.0
20260510184019 24 0 0.0 0.0 0.00 0.08 0.00 55 1013.1
20260510183511 24 0 0.0 0.0 0.00 0.08 0.00 57 1013.0
20260510183037 23 0 0.0 0.0 0.00 0.08 0.00 58 1013.1
20260510182513 24 0 0.0 0.0 0.00 0.08 0.00 55 1013.3
20260510182013 24 0 0.0 1.6 0.00 0.08 0.00 57 1013.1
20260510181530 25 0 0.0 1.6 0.00 0.08 0.00 53 1013.3
20260510181107 24 0 0.0 0.0 0.00 0.08 0.00 56 1013.4
20260510181024 24 0 0.0 0.0 0.00 0.08 0.00 56 1013.4
20260510180514 25 0 0.0 0.0 0.00 0.08 0.00 53 1013.4
20260510180044 26 0 0.0 0.0 0.00 0.08 0.00 56 1013.2
20260510175514 26 0 0.0 0.0 0.00 0.08 0.00 54 1013.3
20260510175013 26 0 0.0 0.0 0.00 0.08 0.00 53 1013.4
20260510174532 25 0 0.0 0.0 0.00 0.08 0.00 57 1013.2
20260510174015 24 0 0.0 0.0 0.00 0.08 0.00 56 1013.5
20260510173513 25 0 0.0 0.0 0.00 0.08 0.00 54 1013.4
20260510173032 25 0 0.0 0.0 0.00 0.08 0.00 58 1013.4
20260510172509 24 0 0.0 0.0 0.00 0.08 0.00 58 1013.4
20260510172011 24 0 0.0 0.0 0.00 0.08 0.00 55 1013.3
20260510171530 23 0 0.0 0.0 0.00 0.08 0.00 56 1013.3
20260510171039 24 0 0.0 0.0 0.00 0.08 0.00 56 1013.3
20260510170513 24 0 0.0 0.0 0.00 0.08 0.00 56 1013.3
20260510170034 25 0 0.0 0.0 0.00 0.08 0.00 55 1013.3
20260510165513 25 0 0.0 0.0 0.00 0.13 0.00 55 1013.2
20260510165013 25 0 0.0 0.0 0.00 0.13 0.00 54 1013.2
20260510164546 25 0 0.0 0.0 0.00 0.13 0.00 57 1013.2
20260510164012 24 0 0.0 0.0 0.00 0.13 0.00 55 1013.3
20260510163513 24 0 0.0 0.0 0.00 0.13 0.00 55 1013.1
20260510163034 24 0 0.0 0.0 0.00 0.13 0.00 58 1013.1
20260510162513 23 0 0.0 0.0 0.00 0.13 0.00 65 1013.2
20260510162013 23 0 0.0 0.0 0.00 0.13 0.00 63 1013.2
20260510161535 23 0 0.0 0.0 0.00 0.13 0.00 63 1013.3
20260510161023 23 0 0.0 0.0 0.00 0.13 0.00 61 1013.4
20260510160511 23 0 0.0 0.0 0.00 0.13 0.00 64 1013.3
20260510160037 23 0 0.0 0.0 0.00 0.13 0.00 63 1013.3
20260510155513 23 0 0.0 0.0 0.00 0.18 0.00 60 1013.2
20260510155112 23 0 0.0 0.0 0.00 0.18 0.00 62 1013.3
20260510154623 23 0 0.0 0.0 0.00 0.18 0.00 61 1013.2
20260510154012 23 0 0.0 0.0 0.00 0.18 0.00 62 1013.2
20260510153512 23 0 0.0 0.0 0.00 0.18 0.00 65 1013.3
20260510153108 22 0 0.0 0.0 0.00 0.18 0.00 64 1013.3
20260510152515 22 0 0.0 0.0 0.00 0.18 0.00 67 1013.2
20260510152012 22 0 0.0 0.0 0.00 0.18 0.00 66 1013.3
20260510151529 22 0 0.0 0.0 0.00 0.18 0.00 66 1013.3
20260510151010 22 0 0.0 0.0 0.00 0.18 0.00 68 1013.3
20260510150512 22 0 0.0 0.0 0.00 0.18 0.00 68 1013.2
20260510150034 22 0 0.0 0.0 0.00 0.18 0.00 66 1013.2
20260510145614 21 0 0.0 0.0 0.00 0.18 0.00 65 1013.2
20260510145011 21 0 0.0 0.0 0.00 0.18 0.00 69 1013.1
20260510144529 21 0 0.0 0.0 0.00 0.18 0.00 69 1013.1
20260510144011 21 0 0.0 0.0 0.00 0.18 0.00 70 1013.2
20260510143512 21 0 0.0 0.0 0.00 0.18 0.00 71 1013.2
20260510143038 20 0 0.0 0.0 0.00 0.18 0.00 73 1013.2
20260510142513 20 0 0.0 0.0 0.00 0.18 0.00 71 1013.2
20260510142017 20 0 0.0 0.0 0.00 0.18 0.00 73 1013.3
20260510141533 20 0 0.0 0.0 0.00 0.18 0.00 76 1013.2
20260510141013 19 0 0.0 0.0 0.00 0.18 0.00 74 1013.2
20260510140512 19 0 0.0 0.0 0.00 0.18 0.00 76 1013.1
20260510140030 19 0 0.0 0.0 0.00 0.18 0.00 80 1013.2
20260510135510 18 0 0.0 0.0 0.00 0.18 0.00 82 1013.2
20260510135010 18 0 0.0 0.0 0.00 0.18 0.00 84 1013.1
20260510134531 18 0 0.0 0.0 0.00 0.18 0.00 84 1013.2
20260510134012 17 0 0.0 0.0 0.00 0.18 0.00 85 1013.1
20260510133512 17 0 0.0 0.0 0.00 0.18 0.00 86 1013.1
20260510133029 17 0 0.0 0.0 0.00 0.18 0.00 88 1013.0
20260510132511 16 0 0.0 0.0 0.00 0.18 0.00 90 1013.0
20260510132011 16 0 0.0 0.0 0.00 0.18 0.00 93 1013.1
20260510131531 15 0 0.0 0.0 0.00 0.18 0.00 93 1013.1
20260510131011 15 0 0.0 0.0 0.00 0.18 0.00 95 1013.1
20260510130512 15 0 0.0 0.0 0.00 0.18 0.00 95 1013.1
20260510130035 14 0 0.0 0.0 0.00 0.18 0.00 96 1013.1
20260510125511 14 0 0.0 0.0 0.00 0.18 0.00 96 1013.2
20260510125013 14 0 0.0 0.0 0.00 0.18 0.00 96 1013.2
20260510124554 13 0 0.0 0.0 0.00 0.18 0.00 96 1013.1
20260510124011 14 0 0.0 0.0 0.00 0.18 0.00 97 1013.1
20260510123514 13 0 0.0 0.0 0.00 0.18 0.00 96 1013.0
20260510123028 13 0 0.0 0.0 0.00 0.18 0.00 96 1013.0
20260510122514 12 0 0.0 0.0 0.00 0.18 0.00 96 1012.8
20260510122011 12 0 0.0 0.0 0.00 0.18 0.00 96 1012.8
20260510121532 12 0 0.0 0.0 0.00 0.18 0.00 96 1012.9
20260510121016 12 0 0.0 0.0 0.00 0.18 0.00 96 1012.7
20260510120512 12 0 0.0 0.0 0.00 0.18 0.00 96 1012.7
20260510120033 12 0 0.0 0.0 0.00 0.18 0.00 96 1012.6
20260510115513 12 0 0.0 0.0 0.00 0.18 0.00 96 1012.5
20260510115222 12 0 0.0 0.0 0.00 0.18 0.00 96 1012.3
20260510114657 12 0 0.0 0.0 0.00 0.18 0.00 96 1012.3
20260510114546 12 0 0.0 0.0 0.00 0.18 0.00 96 1012.3
20260510114319 11 0 0.0 0.0 0.00 0.18 0.00 96 1012.4
20260510113509 11 0 0.0 0.0 0.00 0.18 0.00 96 1012.2
20260510113035 11 0 0.0 0.0 0.00 0.18 0.00 95 1012.3
20260510112521 11 0 0.0 0.0 0.00 0.18 0.00 95 1012.4
20260510112020 11 0 0.0 0.0 0.00 0.18 0.00 95 1012.3
20260510111545 11 0 0.0 0.0 0.00 0.18 0.00 95 1012.2
20260510111100 11 0 0.0 0.0 0.00 0.18 0.00 96 1012.2
20260510110913 11 0 0.0 0.0 0.00 0.18 0.00 96 1012.2
20260510105513 10 0 0.0 3.2 0.00 0.18 0.00 95 1011.9
20260510105301 10 0 0.0 3.2 0.00 0.18 0.00 95 1012.2
20260510104829 10 0 0.0 3.2 0.00 0.18 0.00 95 1012.2
20260510104015 10 0 0.0 0.0 0.00 0.18 0.00 95 1012.0
20260510103512 10 0 0.0 0.0 0.00 0.18 0.00 95 1011.9
20260510103131 10 0 0.0 0.0 0.00 0.18 0.00 95 1011.8
20260510102819 10 0 0.0 0.0 0.00 0.18 0.00 95 1011.7
20260510102427 10 0 0.0 0.0 0.00 0.18 0.00 95 1011.8
20260510102352 10 0 0.0 0.0 0.00 0.18 0.00 95 1011.8
20260510101530 10 0 0.0 0.0 0.00 0.18 0.00 95 1011.6
20260510101014 10 0 0.0 0.0 0.00 0.18 0.00 95 1011.7
20260510100521 10 0 0.0 0.0 0.00 0.18 0.00 95 1011.5
20260510100028 10 0 0.0 0.0 0.00 0.18 0.00 95 1011.6
20260510095521 10 0 0.0 0.0 0.00 0.18 0.00 95 1011.6
20260510095014 10 0 0.0 0.0 0.00 0.18 0.00 95 1011.5
20260510094532 10 0 0.0 0.0 0.00 0.18 0.00 95 1011.6
20260510094022 10 0 0.0 0.0 0.00 0.18 0.00 95 1011.5
20260510093515 10 0 0.0 0.0 0.00 0.18 0.00 95 1011.5
20260510093100 10 0 0.0 0.0 0.00 0.18 0.00 95 1011.5
20260510092512 9 0 0.0 0.0 0.00 0.18 0.00 95 1011.4
20260510092013 9 0 0.0 3.2 0.00 0.18 0.00 95 1011.1
20260510091733 9 0 0.0 3.2 0.00 0.18 0.00 95 1011.3
20260510091613 9 0 0.0 3.2 0.00 0.18 0.00 95 1011.3
20260510091014 9 0 0.0 0.0 0.00 0.18 0.00 95 1011.3
20260510090518 9 0 0.0 0.0 0.00 0.18 0.00 94 1011.2
20260510090300 9 0 0.0 0.0 0.00 0.18 0.00 94 1011.6
20260510084627 8 0 0.0 8.0 0.00 0.18 0.00 94 1011.6
20260510083520 8 0 0.0 4.8 0.00 0.18 0.00 94 1011.6
20260510083028 8 0 0.0 4.8 0.00 0.18 0.00 94 1011.4
20260510082834 8 218 0.0 6.4 0.00 0.18 0.00 94 1011.1
20260510082449 8 219 0.0 12.9 0.00 0.18 0.00 94 1011.4
20260510080117 8 0 0.0 0.0 0.00 0.18 0.00 93 1010.7
20260510075543 8 0 0.0 0.0 0.00 0.18 0.00 93 1010.6
20260510075014 8 0 0.0 0.0 0.00 0.18 0.00 93 1010.9
20260510074951 8 0 0.0 0.0 0.00 0.18 0.00 93 1010.7
20260510074133 8 0 0.0 3.2 0.00 0.18 0.00 93 1010.7
20260510073522 8 0 0.0 3.2 0.00 0.18 0.00 93 1010.7
20260510073040 8 0 0.0 3.2 0.00 0.18 0.00 93 1010.7
20260510072635 8 0 0.0 6.4 0.00 0.18 0.00 93 1010.6
20260510072028 8 0 0.0 6.4 0.00 0.18 0.00 93 1010.7
20260510071723 8 213 0.0 6.4 0.00 0.18 0.00 93 1010.7
20260510071230 8 0 0.0 4.8 0.00 0.18 0.00 93 1010.7
20260510071000 8 0 0.0 0.0 0.00 0.18 0.00 93 1010.6
20260510070042 8 0 0.0 0.0 0.00 0.18 0.00 93 1010.5
20260510065747 8 0 0.0 0.0 0.00 0.18 0.00 93 1010.5
20260510064555 8 0 0.0 0.0 0.00 0.18 0.00 92 1010.4
20260510064055 8 0 0.0 0.0 0.00 0.18 0.00 92 1010.2
20260510063042 8 0 0.0 0.0 0.00 0.18 0.00 93 1010.2
20260510062609 9 0 0.0 0.0 0.00 0.18 0.00 93 1010.2
20260510062015 9 0 0.0 0.0 0.00 0.18 0.00 93 1010.3
20260510061542 9 0 0.0 0.0 0.00 0.18 0.00 93 1010.3
20260510061223 9 0 0.0 0.0 0.00 0.18 0.00 93 1010.3
20260510061027 9 0 0.0 0.0 0.00 0.18 0.00 93 1010.3
20260510060807 9 0 0.0 0.0 0.00 0.18 0.00 93 1010.3
20260510060132 9 0 0.0 0.0 0.00 0.18 0.00 93 1010.3
20260510055601 9 0 0.0 0.0 0.00 0.18 0.00 93 1010.4
20260510055012 9 0 0.0 0.0 0.00 0.18 0.00 93 1010.6
20260510054534 9 0 0.0 0.0 0.00 0.18 0.00 93 1010.4
20260510054325 9 0 0.0 0.0 0.00 0.18 0.00 93 1010.6
20260510053513 9 0 0.0 0.0 0.00 0.18 0.00 93 1010.6
20260510053029 8 0 0.0 0.0 0.00 0.18 0.00 93 1010.7
20260510052508 8 0 0.0 0.0 0.00 0.18 0.00 93 1010.7
20260510052021 8 0 0.0 0.0 0.00 0.18 0.00 93 1010.8
20260510051618 8 0 0.0 0.0 0.00 0.18 0.00 92 1010.7
20260510050510 8 0 0.0 0.0 0.00 0.18 0.00 92 1010.7
20260510050248 8 0 0.0 0.0 0.00 0.18 0.00 92 1010.7
20260510044538 8 0 0.0 0.0 0.00 0.18 0.00 91 1010.9
20260510044015 8 0 0.0 0.0 0.00 0.18 0.00 91 1010.8
20260510043520 8 0 0.0 0.0 0.00 0.18 0.00 92 1010.9
20260510043029 8 0 0.0 0.0 0.00 0.18 0.00 91 1011.1
20260510042529 8 0 0.0 0.0 0.00 0.18 0.00 91 1011.1
20260510042021 8 0 0.0 0.0 0.00 0.18 0.00 91 1011.0
20260510041536 8 0 0.0 0.0 0.00 0.18 0.00 91 1011.0
20260510040712 8 0 0.0 0.0 0.00 0.18 0.00 91 1011.1
20260510040331 9 0 0.0 0.0 0.00 0.18 0.00 91 1011.1
20260510034333 9 0 0.0 0.0 0.00 0.18 0.18 91 1011.0
20260510032515 9 0 0.0 0.0 0.00 0.18 0.18 91 1010.8
20260510032015 9 0 0.0 0.0 0.00 0.18 0.18 91 1010.8
20260510031954 9 0 0.0 0.0 0.00 0.18 0.18 91 1010.9
20260510025529 10 0 0.0 0.0 0.00 0.18 0.18 91 1010.6
20260510025014 10 0 0.0 0.0 0.00 0.18 0.18 91 1010.4
20260510024533 10 0 0.0 0.0 0.00 0.18 0.18 91 1010.5
20260510024030 10 0 0.0 0.0 0.00 0.18 0.18 91 1010.5
20260510023512 10 0 0.0 0.0 0.00 0.18 0.18 91 1010.6
20260510023029 10 0 0.0 0.0 0.00 0.18 0.18 91 1010.7
20260510022510 10 0 0.0 0.0 0.00 0.18 0.18 91 1010.6
20260510022009 10 0 0.0 0.0 0.00 0.18 0.18 91 1010.6
20260510021530 10 0 0.0 0.0 0.00 0.18 0.18 91 1010.7
20260510021011 10 0 0.0 0.0 0.00 0.18 0.18 91 1010.7
20260510020510 10 0 0.0 0.0 0.00 0.18 0.18 91 1010.5
20260510020033 10 0 0.0 0.0 0.00 0.18 0.18 91 1010.5
20260510015516 10 0 0.0 0.0 0.00 0.18 0.18 91 1010.6
20260510015016 10 0 0.0 0.0 0.00 0.18 0.18 91 1010.5
20260510014534 10 0 0.0 0.0 0.00 0.18 0.18 91 1010.5
20260510014043 10 0 0.0 0.0 0.00 0.18 0.18 90 1010.5
20260510013516 10 0 0.0 0.0 0.00 0.18 0.18 90 1010.4
20260510013050 10 0 0.0 0.0 0.00 0.18 0.18 90 1010.4
20260510012518 10 0 0.0 0.0 0.00 0.18 0.18 90 1010.4
20260510012014 11 0 0.0 0.0 0.00 0.18 0.18 90 1010.5
20260510011533 11 0 0.0 0.0 0.00 0.18 0.18 90 1010.3
20260510011013 11 0 0.0 0.0 0.00 0.18 0.18 90 1010.3
20260510010510 11 0 0.0 0.0 0.00 0.18 0.18 90 1010.2
20260510010045 11 0 0.0 0.0 0.00 0.18 0.18 90 1010.2
20260510005510 11 0 0.0 0.0 0.00 0.18 0.18 90 1010.2
20260510005013 11 0 0.0 0.0 0.00 0.18 0.18 90 1010.2
20260510004533 11 0 0.0 0.0 0.00 0.18 0.18 90 1010.2
20260510004222 11 0 0.0 0.0 0.00 0.18 0.18 90 1010.2
20260510004028 11 0 0.0 0.0 0.00 0.18 0.18 90 1010.2
20260510003516 11 0 0.0 0.0 0.00 0.18 0.18 90 1010.0
20260510003044 12 0 0.0 0.0 0.00 0.18 0.18 90 1009.8
20260510002514 12 0 0.0 0.0 0.00 0.18 0.18 90 1009.9
20260510002013 12 0 0.0 0.0 0.00 0.18 0.18 90 1010.1
20260510001532 12 0 0.0 0.0 0.00 0.18 0.18 91 1010.0
20260510001015 12 0 0.0 0.0 0.00 0.18 0.18 91 1010.1
20260510000512 12 0 0.0 0.0 0.00 0.18 0.18 91 1010.1
20260510000111 12 0 0.0 0.0 0.00 0.18 0.18 90 1010.0
20260510000033 12 0 0.0 0.0 0.00 0.18 0.18 90 1010.0
20260509235725 12 0 0.0 0.0 0.00 0.18 0.18 90 1010.0
20260509235021 12 0 0.0 0.0 0.00 0.18 0.18 90 1010.0
20260509234555 12 0 0.0 0.0 0.00 0.18 0.18 91 1010.0
20260509234056 12 0 0.0 0.0 0.00 0.18 0.18 90 1010.0
20260509233515 12 0 0.0 0.0 0.00 0.18 0.18 90 1010.1
20260509233041 12 0 0.0 0.0 0.00 0.18 0.18 90 1010.0
20260509232510 12 0 0.0 0.0 0.00 0.18 0.18 90 1010.0
20260509232011 12 0 0.0 0.0 0.00 0.18 0.18 90 1010.1
20260509231540 12 0 0.0 0.0 0.00 0.18 0.18 90 1010.1
20260509231014 12 0 0.0 0.0 0.00 0.18 0.18 90 1010.1
20260509230715 12 0 0.0 0.0 0.00 0.18 0.18 90 1010.0
20260509230032 12 0 0.0 0.0 0.00 0.18 0.18 90 1009.9
20260509225512 13 0 0.0 0.0 0.00 0.18 0.18 90 1009.9
20260509225013 13 0 0.0 0.0 0.00 0.18 0.18 90 1009.8
20260509224532 13 0 0.0 0.0 0.00 0.18 0.18 90 1009.9
20260509224013 13 0 0.0 0.0 0.00 0.18 0.18 90 1010.0
20260509223512 13 0 0.0 0.0 0.00 0.18 0.18 90 1009.9
20260509223033 13 0 0.0 0.0 0.00 0.18 0.18 91 1010.0
20260509222513 13 0 0.0 0.0 0.00 0.18 0.18 91 1009.9
20260509222011 13 0 0.0 0.0 0.00 0.18 0.18 91 1010.1
20260509221529 13 0 0.0 0.0 0.00 0.18 0.18 91 1010.1
20260509221014 13 0 0.0 0.0 0.00 0.18 0.18 92 1010.0
20260509220511 13 0 0.0 0.0 0.00 0.18 0.18 92 1009.9
20260509220030 13 0 0.0 0.0 0.00 0.18 0.18 92 1009.9
20260509215512 13 0 0.0 0.0 0.00 0.18 0.18 93 1010.0
20260509215018 13 0 0.0 0.0 0.00 0.18 0.18 93 1009.8
20260509214533 13 0 0.0 0.0 0.00 0.18 0.18 93 1009.7
20260509214304 12 0 0.0 0.0 0.00 0.18 0.18 93 1009.8
20260509214154 12 0 0.0 0.0 0.00 0.18 0.18 93 1009.8
20260509213604 12 0 0.0 0.0 0.00 0.18 0.18 92 1009.9
20260509213031 12 0 0.0 0.0 0.00 0.18 0.18 92 1009.8
20260509212510 12 0 0.0 3.2 0.00 0.18 0.18 92 1009.8
20260509212014 12 0 0.0 3.2 0.00 0.18 0.18 92 1010.0
20260509211533 12 0 0.0 3.2 0.03 0.18 0.18 92 1010.0
20260509211056 13 0 0.0 0.0 0.03 0.18 0.18 92 1010.1
20260509210703 13 0 0.0 0.0 0.03 0.18 0.18 92 1010.1
20260509210304 13 0 0.0 0.0 0.03 0.18 0.18 93 1010.0
20260509204813 13 0 0.0 3.2 0.03 0.18 0.18 93 1010.0
20260509204019 13 0 0.0 0.0 0.03 0.18 0.18 93 1010.2
20260509204012 13 0 0.0 4.8 0.03 0.18 0.18 93 1010.0
20260509203041 12 0 0.0 4.8 0.03 0.18 0.18 93 1010.1
20260509202810 12 0 0.0 3.2 0.03 0.18 0.18 92 1009.9
20260509202323 12 0 0.0 4.8 0.03 0.18 0.18 92 1010.0
20260509201529 12 0 0.0 4.8 0.00 0.15 0.15 92 1010.0
20260509201013 12 0 0.0 4.8 0.00 0.15 0.15 93 1009.8
20260509200519 12 0 0.0 8.0 0.00 0.15 0.15 93 1009.9
20260509200034 12 0 0.0 8.0 0.03 0.15 0.15 93 1010.0
20260509195511 12 213 1.6 8.0 0.03 0.15 0.15 93 1010.2
20260509195024 12 0 1.6 8.0 0.03 0.15 0.15 93 1010.0
20260509194530 12 0 0.0 6.4 0.03 0.15 0.15 93 1010.0
20260509194018 12 0 0.0 11.3 0.03 0.15 0.15 93 1010.1
20260509193520 12 0 0.0 11.3 0.03 0.15 0.15 93 1010.1
20260509193031 12 0 1.6 11.3 0.03 0.15 0.15 93 1010.5